772  
ASUS42 KTBW 221917  
RWRFL  
FLORIDA REGIONAL WEATHER ROUNDUP  
NATIONAL WEATHER SERVICE TAMPA BAY RUSKIN FL  
300 PM EDT SUN APR 22 2018  
 
NOTE: "FAIR" INDICATES FEW OR NO CLOUDS BELOW 12,000 FEET WITH NO  
SIGNIFICANT WEATHER AND/OR S TO VISIBILITY
.  
 
FLZ001>010-012>015-112-114-115-222000-  
PANHANDLE FLORIDA  
 
CITY SKY/WX TMP DP RH WIND PRES REMARKS
 
PENSACOLA LGT RAIN 72 69 90 SE20G26 29.94F FOG  
PENSACOLA NAS LGT RAIN 73 70 90 SE17G24 29.94F FOG  
MILTON NAS LGT RAIN 71 71 100 SE17G28 29.94 FOG  
CRESTVIEW RAIN 71 68 90 SE8G20 29.99F FOG  
DUKE FIELD LGT RAIN 72 68 88 SE14G23 29.97F  
VALPARAISO SHOWER 71 69 93 SE21G28 29.96F FOG  
MARY ESTHER LGT RAIN 71 69 94 SE14 29.95F  
TRI COUNTY CLOUDY 73 68 84 SE8 30.00F  
PANAMA CITY CLOUDY 76 67 73 SE18G26 29.99F  
TYNDALL AFB FAIR 76 69 78 SE29 29.99F  
APALACHICOLA FAIR 76 70 82 SE16G25 30.04F  
 
STATION/POSITION SKY/WX TEMP WIND PRES WAVE SWELL
 
AIR SEA DIR/SP/G HT/PER HT/PER  
(F) (DEG/KT/KT) (MB) (FT/S) (FT/S)  
30.1N 87.6W 71 140/ 16/ 19 1013.5  
29.2N 88.2W 71 210/ 16/ 25 1014.3R 3/ 6  
28.8N 86.0W 74 73 130/ 17/ 19 1015.1F 5/ 6  
PANAMA CITY BEAC 71 70 130/ 24/ 27 1015.7F  
TOWER C 70 140/ 19/ 20 1017.4F  
 

 
FLZ011-016>038-118-127-128-134-139-239-222000-  
NORTH FLORIDA  
 
CITY SKY/WX TMP DP RH WIND PRES REMARKS
 
MARIANNA PTSUNNY 77 66 68 S13G23 30.00F  
TALLAHASSEE PTSUNNY 79 67 66 SE16G29 30.05F  
PERRY PTSUNNY 83 65 55 E10G17 30.06F  
LIVE OAK CLOUDY 79 64 61 E10 30.10F  
CROSS CITY PTSUNNY 83 65 54 SE12 30.07F  
LAKE CITY CLOUDY 75 63 64 E12G20 30.11F  
GAINESVILLE PTSUNNY 80 64 58 E13 30.13F  
WILLISTON SUNNY 82 66 57 E15 30.10F  
PALATKA CLOUDY 72 68 88 SE9 30.14F FOG  
MAYPORT NAS CLOUDY 75 65 70 E12 30.16F  
JACKSONVILLE CLOUDY 75 63 66 E14G22 30.15F  
JAX NAS CLOUDY 76 63 64 E20 30.15F  
JAX CECIL PTSUNNY 75 64 69 SE15 30.16S  
FERNANDINA BEA CLOUDY 73 63 68 E7 30.16F  
ST AUGUSTINE CLOUDY 74 65 73 E15 30.16F  
PALM COAST CLOUDY 73 68 83 SE14G23 30.13F  
 
STATION/POSITION SKY/WX TEMP WIND PRES WAVE SWELL
 
AIR SEA DIR/SP/G HT/PER HT/PER  
(F) (DEG/KT/KT) (MB) (FT/S) (FT/S)  
SHELL POINT 73 130/ 10/ 13 1018.3  
KEATON BEACH 77 170/ 13/ 14 1017.9F  
CEDAR KEY 76 130/ 7/ 8 1018.4F  
FERNANDINA 75 66 120/ 6/ 10 1022.5F  
30.7N 81.3W 67 N/A 5/ 7  
MAYPORT 72 66 100/ 10/ 13 1021.5F  
31.4N 80.9W 67 65 90/ 8/ 8 1022.5F 4/ 6 3/ 6  
ST AUGUSTINE 70 69 110/ 12/ 13 1021.1F  
 

 
FLZ040-043>046-052-053-057-058-063-144-222000-  
INTERIOR CENTRAL FLORIDA  
 
CITY SKY/WX TMP DP RH WIND PRES REMARKS
 
OCALA FAIR 80 67 64 SE12 30.10F  
LEESBURG PTSUNNY 78 69 73 E14G20 30.11F  
SANFORD LGT RAIN 74 71 91 E9 30.11F FOG  
ORLANDO EXEC PTSUNNY 79 69 71 E16 30.10F  
ORLANDO INTL PTSUNNY 79 69 71 E17 30.10F  
KISSIMMEE PTSUNNY 80 69 69 E17 30.10F  
WINTER HAVEN FAIR 82 69 64 NE16 30.08F  
LAKELAND PTSUNNY 84 64 51 E8 30.06F  
BARTOW PTSUNNY 84 66 54 NE14 30.06F  
SEBRING FAIR 83 66 55 SE9 30.05F  
OKEECHOBEE FAIR 81 70 69 SE10G17 30.06F  
 

 
FLZ041-047-054-059-064-141-147-222000-  
EAST CENTRAL FLORIDA  
 
CITY SKY/WX TMP DP RH WIND PRES REMARKS
 
ORMOND BEACH CLOUDY 72 64 78 E13G21 30.13F FOG  
DAYTONA BEACH CLOUDY 73 70 90 E13G20 30.13F  
DELAND CLOUDY 73 70 88 E13 30.12F  
NEW SMYRNA BEA CLOUDY 75 68 78 E14 30.14F FOG  
JFK SPACE CTR PTSUNNY 76 69 79 E16G26 30.10F  
TITUSVILLE PTSUNNY 79 68 69 E16G23 30.12  
CAPE CANAVERAL TSTM 72 64 78 S22G29 30.13R  
PATRICK AFB LGT RAIN 69 68 98 E15G25 30.11F FOG  
MELBOURNE PTSUNNY 74 70 87 E13G20 30.10F  
VERO BEACH PTSUNNY 79 67 66 SE15 30.10F  
FT PIERCE PTSUNNY 76 66 71 SE15G26 30.11R  
STUART TSTM 72 66 83 SE14G23 30.12F  
 
STATION/POSITION SKY/WX TEMP WIND PRES WAVE SWELL
 
AIR SEA DIR/SP/G HT/PER HT/PER  
(F) (DEG/KT/KT) (MB) (FT/S) (FT/S)  
28.5N 80.2W 74 73 100/ 17/ 23 1020.1F 7/ 8  
28.9N 78.5W 72 76 80/ 19/ 25 1021.5F 6/ 7 2/14  
TRIDENT PIER 70 76 140/ 15/ 22 1022.0R  
28.4N 80.5W 75 N/A 5/ 8  
27.5N 80.2W 75 N/A 6/ 8  
 

 
FLZ050-056-061-142-242-148-248-149-249-151-251-155-255-  
160-260-222000-  
WEST CENTRAL FLORIDA  
 
CITY SKY/WX TMP DP RH WIND PRES REMARKS
 
CRYSTAL RIVER FAIR 84 66 54 E12G17 30.07F  
INVERNESS FAIR 82 70 65 E12 30.09F  
BROOKSVILLE PTSUNNY 85 67 54 E14 30.06F  
CLEARWATER AIR FAIR 86 64 48 E12 30.04F  
ST PETE CLEARW FAIR 85 68 56 NE8 30.04F  
TAMPA INTL FAIR 88 65 46 VRB6 30.04F  
TAMPA EXEC PTSUNNY 86 64 48 SE6 30.06F  
MACDILL AFB FAIR 87 66 48 S7 30.04F  
PETER O KNIGHT PTSUNNY 86 64 48 S7 30.04F  
ST PETERSBURG FAIR 85 70 60 NE3 30.02F  
SARASOTA FAIR 85 72 65 W12 30.02F  
VENICE FAIR 86 73 66 SW14 30.04F  
 
STATION/POSITION SKY/WX TEMP WIND PRES WAVE SWELL
 
AIR SEA DIR/SP/G HT/PER HT/PER  
(F) (DEG/KT/KT) (MB) (FT/S) (FT/S)  
27.3N 84.2W 74 N/A 3/ 5  
CLEARWATER BEACH 83 75 100/ 7/ 9 1017.4F  
MIDDLE TAMPA BAY 86 150/ 3/ 5 1017.4F  
VENICE 78 76 210/ 10/ 11 1017.1F  
 

 
FLZ066-069-070-075>078-162-262-165-265-222000-  
SOUTHWEST FLORIDA AND KEYS  
 
CITY SKY/WX TMP DP RH WIND PRES REMARKS
 
PUNTA GORDA FAIR 88 64 44 SE7 30.03F  
FT MYERS CLOUDY 90 70 51 S10G16 30.01F HX 95  
SOUTHWEST INTL RAIN 89 69 51 SW12G17 30.02F  
NAPLES FAIR 87 72 60 SW16 30.02F  
MARCO ISLAND PTSUNNY 88 73 62 S16G22 30.03F HX 96  
IMMOKALEE FAIR 90 66 45 SE8 30.03F  
MARATHON FAIR 85 72 65 SE12 30.04F  
KEY WEST NAS FAIR 84 73 69 SE15G21 30.03F  
KEY WEST INTL FAIR 84 74 71 SE14 30.04F  
 
STATION/POSITION SKY/WX TEMP WIND PRES WAVE SWELL
 
AIR SEA DIR/SP/G HT/PER HT/PER  
(F) (DEG/KT/KT) (MB) (FT/S) (FT/S)  
NAPLES 81 79 1016.7F  
26.0N 85.6W 78 79 130/ 14/ 16 1016.0  
DRY TORTUGAS 78 110/ 7/ 8 1017.1F  
SAND KEY 78 1017.0F  
SOMBRERO KEY 78 60/ 9/ 13 1016.7F  
LONG KEY 80 82 140/ 13/ 15 1017.0F  
MOLASSES REEF 160/ 12 N/A  
 

 
FLZ067-068-071>074-168-172>174-222000-  
SOUTHEAST FLORIDA  
 
CITY SKY/WX TMP DP RH WIND PRES REMARKS
 
W PALM BEACH PTSUNNY 78 71 79 E15 30.08S THUNDER  
BOCA RATON LGT RAIN 77 73 88 SE14G22 30.07S  
FT LAUDER-EXEC PTSUNNY 83 73 72 SE15 30.04F  
FT LAUDERDALE PTSUNNY 82 75 79 SE17 30.04F  
POMPANO BEACH FAIR 81 76 84 SE14 30.06S  
PEMBROKE PINES FAIR 84 71 65 SE15 30.06F  
OPA LOCKA PTSUNNY 85 72 65 SE13 30.06F  
MIAMI PTSUNNY 84 70 62 SE17 30.05F  
WEST KENDALL FAIR 87 69 54 SE14 30.04F  
HOMESTEAD PTSUNNY 82 71 69 SE14 30.04S  
 
STATION/POSITION SKY/WX TEMP WIND PRES WAVE SWELL
 
AIR SEA DIR/SP/G HT/PER HT/PER  
(F) (DEG/KT/KT) (MB) (FT/S) (FT/S)  
PORT EVERGLADES 80 140/ 10/ 12 1017.8  
VIRGINIA KEY 80 81 110/ 9/ 13 1017.3F  
LAKE WORTH 77 78 130/ 14/ 16 1019.2F  
FOWEY ROCKS 79 78 130/ 13/ 1  
 
CLICK HERE TO GO TO PREVIOUS BULLETINS.

The Nexlab FL Page Main Text Page